DW4063 Weather Reports


Display with metric or nautical units.
time (UTC)temp
F
wind
direction
speed
MPH
gust
MPH
rain 1hr
in
rain 24hr
in
rain mn
in
humidity
%
barometer
mb
20260831231547 80 283 0.0 0.0 0.10 0.32 0.29 91 1014.9
20260831230030 80 283 0.0 0.0 0.10 0.32 0.29 90 1014.2
20260831224543 81 283 0.0 0.0 0.10 0.33 0.29 88 1014.2
20260831223033 81 283 0.0 0.0 0.09 0.32 0.28 85 1014.1
20260831221544 83 282 0.0 0.0 0.00 0.23 0.19 83 1014.3
20260831220031 84 282 0.0 0.0 0.00 0.23 0.19 80 1013.9
20260831214536 84 299 0.0 2.0 0.00 0.24 0.19 76 1013.6
20260831213028 86 209 0.0 2.0 0.00 0.24 0.19 76 1013.6
20260831211518 87 244 0.0 4.0 0.00 0.24 0.19 69 1013.8
20260831210035 86 242 0.0 8.0 0.01 0.24 0.19 74 1013.8
20260831204537 85 348 0.0 4.0 0.01 0.24 0.19 76 1014.1
20260831203037 85 182 0.0 1.0 0.02 0.24 0.19 82 1014.4
20260831201508 85 178 0.0 1.0 0.02 0.24 0.19 74 1014.5
20260831200004 84 301 0.0 0.0 0.01 0.24 0.18 81 1014.1
20260831194518 86 301 0.0 2.0 0.01 0.26 0.18 73 1014.2
20260831193019 87 200 0.0 4.0 0.00 0.26 0.17 63 1014.3
20260831191535 88 250 0.0 7.0 0.00 0.26 0.17 63 1014.3
20260831190012 87 229 1.0 6.0 0.00 0.26 0.17 62 1014.5
20260831184509 87 215 2.0 4.0 0.00 0.26 0.17 60 1014.6
20260831183004 87 188 2.0 6.0 0.00 0.26 0.17 62 1014.5
20260831181524 85 238 1.0 5.0 0.00 0.26 0.17 67 1014.5
20260831180023 83 227 0.0 6.0 0.00 0.26 0.17 70 1014.6
20260831174516 81 245 2.0 7.0 0.00 0.26 0.17 71 1014.8
20260831173012 80 198 1.0 9.0 0.00 0.26 0.17 74 1015.0
20260831171510 78 256 1.0 6.0 0.00 0.26 0.17 78 1015.1
20260831170026 76 211 1.0 6.0 0.00 0.26 0.17 82 1015.5
20260831164526 75 188 1.0 6.0 0.00 0.26 0.17 85 1015.7
20260831163035 73 213 0.0 5.0 0.00 0.26 0.17 90 1015.8
20260831161525 72 198 0.0 3.0 0.00 0.26 0.17 92 1015.9
20260831160026 71 85 0.0 4.0 0.00 0.26 0.17 93 1015.9
20260831154602 70 289 0.0 3.0 0.00 0.26 0.17 93 1016.0
20260831153028 70 113 0.0 2.0 0.01 0.26 0.17 93 1016.0
20260831151534 70 194 0.0 1.0 0.06 0.26 0.17 93 1016.1
20260831150028 70 194 0.0 1.0 0.06 0.26 0.17 93 1016.2
20260831144528 69 195 0.0 2.0 0.08 0.26 0.17 93 1016.2
20260831143019 69 132 0.0 1.0 0.08 0.25 0.16 92 1015.9
20260831141516 69 215 0.0 2.0 0.03 0.20 0.11 92 1016.2
20260831140029 69 204 0.0 1.0 0.04 0.20 0.11 92 1015.9
20260831134531 69 242 0.0 1.0 0.07 0.18 0.09 92 1016.1
20260831133035 69 242 0.0 0.0 0.08 0.17 0.08 91 1016.2
20260831131529 70 242 0.0 0.0 0.08 0.17 0.08 90 1016.1
20260831130033 70 223 0.0 1.0 0.07 0.18 0.07 89 1016.2
20260831124538 71 273 0.0 0.0 0.02 0.13 0.02 87 1016.4
20260831123031 72 211 0.0 1.0 0.00 0.14 0.00 84 1016.1
20260831121543 72 211 0.0 1.0 0.00 0.15 0.00 81 1015.6
20260831120038 72 211 0.0 1.0 0.00 0.17 0.00 81 1015.2
20260831114533 72 230 0.0 2.0 0.00 0.19 0.00 80 1015.1
20260831113027 73 213 0.0 4.0 0.00 0.19 0.00 78 1014.9
20260831111520 73 175 0.0 3.0 0.00 0.19 0.00 76 1014.6
20260831110020 73 296 0.0 2.0 0.00 0.19 0.00 76 1014.9
20260831104514 73 219 1.0 4.0 0.00 0.19 0.00 75 1014.9
20260831103011 73 215 0.0 3.0 0.00 0.19 0.00 76 1015.1
20260831101507 73 202 0.0 3.0 0.00 0.19 0.00 77 1015.0
20260831100038 73 236 0.0 3.0 0.00 0.19 0.00 78 1014.7
20260831094529 72 223 0.0 3.0 0.00 0.19 0.00 79 1014.6
20260831093036 72 221 0.0 2.0 0.00 0.19 0.00 81 1014.9
20260831091517 72 205 0.0 2.0 0.00 0.19 0.00 83 1014.9
20260831090012 71 214 0.0 2.0 0.00 0.19 0.00 84 1014.9
20260831084508 72 214 0.0 0.0 0.00 0.19 0.00 84 1015.0
20260831083029 72 214 0.0 0.0 0.00 0.19 0.00 83 1015.1
20260831081534 72 214 0.0 2.0 0.00 0.19 0.00 83 1014.9
20260831080024 72 231 0.0 1.0 0.00 0.19 0.00 84 1014.9
20260831074525 72 229 0.0 1.0 0.00 0.19 0.00 84 1015.0
20260831073012 72 292 0.0 2.0 0.00 0.19 0.00 85 1015.0
20260831071510 73 213 0.0 1.0 0.00 0.19 0.00 85 1015.1
20260831070032 73 213 0.0 1.0 0.00 0.19 0.00 85 1015.0
20260831064530 74 200 0.0 2.0 0.00 0.19 0.00 84 1015.2
20260831063032 74 198 0.0 2.0 0.00 0.19 0.00 83 1015.2
20260831061523 75 244 0.0 3.0 0.00 0.19 0.00 82 1015.0
20260831060018 75 194 2.0 4.0 0.00 0.19 0.00 83 1015.1
20260831054513 75 205 0.0 4.0 0.00 0.19 0.00 84 1015.0
20260831053046 74 218 1.0 4.0 0.00 0.19 0.00 86 1014.9
20260831051534 73 188 1.0 5.0 0.00 0.19 0.00 89 1014.7
20260831050030 73 229 0.0 3.0 0.00 0.19 0.00 92 1015.0
20260831044527 73 232 0.0 3.0 0.00 0.19 0.19 94 1015.1
20260831043019 73 210 0.0 2.0 0.00 0.19 0.19 94 1015.2
20260831041515 73 205 0.0 2.0 0.00 0.19 0.19 94 1015.5
20260831040033 73 205 0.0 1.0 0.00 0.19 0.19 94 1015.6
20260831034530 72 276 0.0 0.0 0.01 0.19 0.19 94 1015.8
20260831033040 72 276 0.0 0.0 0.02 0.19 0.19 94 1016.0
20260831031528 72 276 0.0 0.0 0.02 0.19 0.19 94 1016.5
20260831030025 72 276 0.0 0.0 0.02 0.19 0.19 94 1016.6
20260831024531 72 276 0.0 0.0 0.01 0.18 0.18 94 1016.5
20260831023037 72 276 0.0 0.0 0.00 0.17 0.17 94 1016.4
20260831021514 72 276 0.0 0.0 0.00 0.17 0.17 94 1016.5
20260831020007 73 276 0.0 1.0 0.00 0.17 0.17 94 1016.7
20260831014505 72 276 0.0 0.0 0.00 0.17 0.17 94 1016.2
20260831013027 72 276 0.0 0.0 0.00 0.17 0.17 93 1016.4
20260831011525 72 276 0.0 0.0 0.00 0.17 0.17 93 1016.3
20260831010016 72 276 0.0 1.0 0.00 0.17 0.17 93 1016.3
20260831004512 73 202 0.0 0.0 0.01 0.17 0.17 93 1015.8
20260831003009 73 202 0.0 0.0 0.01 0.17 0.17 93 1015.7
20260831001506 73 202 0.0 0.0 0.01 0.17 0.17 93 1016.0
20260831000028 73 202 0.0 0.0 0.01 0.17 0.17 93 1016.2
20260830234539 73 202 0.0 0.0 0.01 0.16 0.16 93 1016.3
20260830233026 73 202 0.0 0.0 0.01 0.16 0.16 93 1016.6